Torna al catalogo

SL-8 DEB

AttivoLEO
NORAD 21208·DEBRIS·🇷🇺 Russia

Lanciato Feb 12, 1991 da Plesetsk Cosmodrome

Loading…

Prossimi Passaggi (prossime 24 ore)

TLE

AggiornatoSource: Space-Track

Epoca: Sep 14, 2026, 07:17 UTC

1 21208U 91009BB  26257.30381497  .00000031  00000-0  38426-3 0  9999
2 21208  73.9611  26.1064 0148017 241.4801 139.2621 12.31159377592843

Traccia SL-8 DEB in tempo reale con AllMySat

Download on the App Store